This demonstration page uses our WeatherBlox Daily Observations layout. Learn more.

Left ArrowRight Arrow

31.84235, -102.49876

Hourly Observations for June 29, 2022

Temp ( °F °C ) Dew Point ( °F °C ) Humidity (%) Winds ( mph kmh ) Pressure ( in mb ) Visibility ( mi km ) Precip ( " mm )
12:53 am 00:53 Clear 70 21.1 65 18.3 84 84 SE 6 9 30.12 1020 10 16 0.01 0.25
1:53 am 01:53 Clear 71 21.7 64 17.8 79 79 Calm 30.10 1019 10 16 0.00 0.00
2:53 am 02:53 Mostly Cloudy 70 21.1 66 18.9 87 87 ENE 5 7 30.09 1019 10 16 0.00 0.00
3:53 am 03:53 Clear 69 20.6 66 18.9 90 90 NE 6 9 30.08 1019 10 16 0.00 0.00
4:53 am 04:53 Clear 69 20.6 66 18.9 90 90 NE 5 7 30.08 1019 9 14 0.00 0.00
5:53 am 05:53 Clear 69 20.6 66 18.9 90 90 E 5 7 30.09 1019 9 14 0.00 0.00
6:53 am 06:53 Sunny 70 21.1 66 18.9 87 87 E 5 7 30.11 1020 8 13 0.00 0.00
7:53 am 07:53 Mostly Sunny 72 22.2 65 18.3 79 79 ESE 5 7 30.12 1020 10 16 0.00 0.00
8:53 am 08:53 Sunny 74 23.3 65 18.3 74 74 ESE 6 9 30.14 1021 10 16 0.00 0.00
9:53 am 09:53 Mostly Cloudy 78 25.6 64 17.8 62 62 ESE 7 11 30.15 1021 10 16 0.00 0.00
10:53 am 10:53 Sunny 80 26.7 63 17.2 56 56 SE 8 13 30.14 1021 10 16 0.00 0.00
11:53 am 11:53 Sunny 82 27.8 61 16.1 49 49 S 12 19 30.14 1021 10 16 0.00 0.00
12:53 pm 12:53 Sunny 84 28.9 59 15 43 43 S 8 13 30.13 1020 10 16 0.00 0.00
1:53 pm 13:53 Sunny 86 30 58 14.4 39 39 SSE 6 9 30.10 1019 10 16 0.00 0.00
2:53 pm 14:53 Sunny 89 31.7 58 14.4 35 35 SSE 13 20 30.07 1018 10 16 0.00 0.00
3:53 pm 15:53 Partly Cloudy 89 31.7 58 14.4 35 35 VRB 6 9 30.05 1018 10 16 0.00 0.00
4:53 pm 16:53 Partly Cloudy 92 33.3 57 13.9 31 31 VRB 5 7 30.02 1017 10 16 0.00 0.00
5:53 pm 17:53 Sunny 89 31.7 56 13.3 33 33 Calm 29.99 1016 10 16 0.00 0.00
6:53 pm 18:53 Mostly Sunny 93 33.9 54 12.2 27 27 VRB 6 9 29.97 1015 10 16 0.00 0.00
7:53 pm 19:53 Sunny 88 31.1 57 13.9 35 35 SE 13 20 29.98 1015 10 16 0.00 0.00
8:53 pm 20:53 Sunny 85 29.4 59 15 42 42 SE 13 20 29.99 1016 10 16 0.00 0.00
9:53 pm 21:53 Clear 83 28.3 59 15 44 44 SSE 12 19 29.99 1016 10 16 0.00 0.00
10:53 pm 22:53 Clear 82 27.8 58 14.4 44 44 SE 9 15 30.01 1016 10 16 0.00 0.00
11:53 pm 23:53 Clear 81 27.2 59 15 47 47 SE 8 13 30.03 1017 10 16 0.00 0.00

Powered by AerisWeather